This is the latest recevied weather packets stored in our database for station/object K1FFK-1. If no packets are shown the sender has not sent any weather packets the latest 1 day(s).
| Time | Temp. | Humidity | Pressure | Rain* | Wind** | Luminosity | Snow |
|---|---|---|---|---|---|---|---|
| 1777975894 | 10.56° C | 73% | 1013.1 hPa | 0 mm | 1.79 m/s, 194° | - | - |
| 1777975294 | 10.56° C | 72% | 1013 hPa | 0 mm | 1.79 m/s, 225° | - | - |
| 1777974694 | 11.11° C | 72% | 1012.8 hPa | 0 mm | 1.34 m/s, 191° | - | - |
| 1777974093 | 11.11° C | 72% | 1012.7 hPa | 0 mm | 1.79 m/s, 206° | - | - |
| 1777973494 | 11.11° C | 71% | 1012.9 hPa | 0 mm | 2.24 m/s, 206° | - | - |
| 1777972895 | 10.56° C | 72% | 1012.9 hPa | 0 mm | 1.79 m/s, 201° | - | - |
| 1777972293 | 10.56° C | 72% | 1012.7 hPa | 0 mm | 1.79 m/s, 213° | - | - |
| 1777971693 | 10° C | 72% | 1012.8 hPa | 0 mm | 1.79 m/s, 203° | - | - |
| 1777971093 | 10° C | 72% | 1012.8 hPa | 0 mm | 1.79 m/s, 196° | - | - |
| 1777970494 | 9.44° C | 73% | 1012.9 hPa | 0 mm | 1.34 m/s, 202° | - | - |
| 1777969895 | 9.44° C | 74% | 1012.9 hPa | 0 mm | 2.24 m/s, 194° | - | - |
| 1777969293 | 8.89° C | 74% | 1013 hPa | 0 mm | 2.24 m/s, 194° | - | - |
| 1777968697 | 9.44° C | 74% | 1013 hPa | 0 mm | 1.79 m/s, 210° | - | - |
| 1777968093 | 9.44° C | 72% | 1013 hPa | 0 mm | 2.68 m/s, 196° | - | - |
| 1777967494 | 9.44° C | 72% | 1012.8 hPa | 0 mm | 2.24 m/s, 194° | - | - |
| 1777966894 | 9.44° C | 71% | 1012.8 hPa | 0 mm | 2.68 m/s, 196° | - | - |
| 1777966295 | 9.44° C | 71% | 1012.8 hPa | 0 mm | 3.13 m/s, 201° | - | - |
| 1777965694 | 9.44° C | 70% | 1013 hPa | 0 mm | 2.24 m/s, 209° | - | - |
| 1777965093 | 9.44° C | 70% | 1012.7 hPa | 0 mm | 2.68 m/s, 201° | - | - |
| 1777964494 | 9.44° C | 70% | 1012.9 hPa | 0 mm | 3.58 m/s, 201° | - | - |
| 1777963894 | 8.89° C | 71% | 1013 hPa | 0 mm | 2.68 m/s, 215° | - | - |
| 1777963294 | 8.89° C | 72% | 1013.1 hPa | 0 mm | 2.68 m/s, 203° | - | - |
| 1777962696 | 8.89° C | 71% | 1013.2 hPa | 0 mm | 2.68 m/s, 208° | - | - |
* Rain latest hour (hover to see other rain measurements)
** Current wind speed in m/s (hover to see current wind gust speed)